| time (UTC) | temp F | wind direction | speed MPH | gust MPH | rain 1hr in | rain 24hr in | rain mn in | humidity % | barometer mb |
| 20260502221503 | 58 | 0 | 0.0 | 0.0 | 0.00 | 0.00 | 0.00 | 58 | 1020.3 |
| 20260502220005 | 59 | 0 | 0.0 | 0.0 | 0.00 | 0.00 | 0.00 | 58 | 1020.3 |
| 20260502214502 | 60 | 0 | 0.0 | 0.0 | 0.00 | 0.00 | 0.00 | 56 | 1020.3 |
| 20260502213005 | 61 | 0 | 0.0 | 0.0 | 0.00 | 0.00 | 0.00 | 54 | 1020.3 |
| 20260502211503 | 62 | 0 | 0.0 | 0.0 | 0.00 | 0.00 | 0.00 | 52 | 1020.4 |
| 20260502210005 | 63 | 0 | 0.0 | 0.0 | 0.00 | 0.00 | 0.00 | 52 | 1020.5 |
| 20260502204502 | 63 | 0 | 0.0 | 0.0 | 0.00 | 0.00 | 0.00 | 52 | 1020.5 |
| 20260502203005 | 63 | 0 | 0.0 | 0.0 | 0.00 | 0.00 | 0.00 | 52 | 1020.6 |
| 20260502201502 | 63 | 0 | 0.0 | 0.0 | 0.00 | 0.00 | 0.00 | 52 | 1020.6 |
| 20260502200005 | 63 | 0 | 0.0 | 0.0 | 0.00 | 0.00 | 0.00 | 52 | 1020.6 |
| 20260502194503 | 64 | 0 | 0.0 | 0.0 | 0.00 | 0.00 | 0.00 | 51 | 1020.5 |
| 20260502193005 | 65 | 0 | 0.0 | 0.0 | 0.00 | 0.00 | 0.00 | 49 | 1020.5 |
| 20260502191503 | 64 | 0 | 0.0 | 0.0 | 0.00 | 0.00 | 0.00 | 49 | 1020.5 |
| 20260502190005 | 65 | 0 | 0.0 | 0.0 | 0.00 | 0.00 | 0.00 | 49 | 1020.4 |
| 20260502184503 | 66 | 0 | 0.0 | 0.0 | 0.00 | 0.00 | 0.00 | 46 | 1020.3 |
| 20260502183005 | 67 | 0 | 0.0 | 0.0 | 0.00 | 0.00 | 0.00 | 44 | 1020.2 |
| 20260502181503 | 70 | 0 | 0.0 | 0.0 | 0.00 | 0.00 | 0.00 | 42 | 1020.1 |
| 20260502163004 | 78 | 203 | 0.0 | 2.0 | 0.00 | 0.00 | 0.00 | 35 | 1020.6 |
| 20260502161503 | 79 | 236 | 3.0 | 4.0 | 0.00 | 0.00 | 0.00 | 34 | 1020.6 |
| 20260502151503 | 82 | 0 | 0.0 | 0.0 | 0.00 | 0.00 | 0.00 | 33 | 1021.1 |
| 20260502123005 | 78 | 259 | 4.0 | 10.0 | 0.00 | 0.00 | 0.00 | 35 | 1023.3 |
| 20260502121502 | 79 | 270 | 0.0 | 1.0 | 0.00 | 0.00 | 0.00 | 34 | 1023.4 |
| 20260502114502 | 78 | 0 | 0.0 | 0.0 | 0.00 | 0.00 | 0.00 | 34 | 1023.9 |
| 20260502113004 | 78 | 212 | 2.0 | 5.0 | 0.00 | 0.00 | 0.00 | 34 | 1024.0 |
| 20260502111503 | 77 | 267 | 2.0 | 7.0 | 0.00 | 0.00 | 0.00 | 35 | 1024.2 |
| 20260502110005 | 77 | 232 | 1.0 | 3.0 | 0.00 | 0.00 | 0.00 | 35 | 1024.5 |
| 20260502104502 | 77 | 210 | 5.0 | 7.0 | 0.00 | 0.00 | 0.00 | 35 | 1024.8 |
| 20260502103005 | 77 | 252 | 2.0 | 6.0 | 0.00 | 0.00 | 0.00 | 36 | 1024.7 |
| 20260502101503 | 76 | 274 | 2.0 | 4.0 | 0.00 | 0.00 | 0.00 | 37 | 1024.9 |
| 20260502091503 | 75 | 270 | 1.0 | 2.0 | 0.00 | 0.00 | 0.00 | 40 | 1025.5 |
| 20260502071503 | 66 | 0 | 0.0 | 0.0 | 0.00 | 0.00 | 0.00 | 52 | 1025.9 |
| 20260502070004 | 64 | 286 | 1.0 | 3.0 | 0.00 | 0.00 | 0.00 | 54 | 1026.0 |
| 20260502064503 | 63 | 292 | 2.0 | 2.0 | 0.00 | 0.00 | 0.00 | 56 | 1026.1 |
| 20260502063004 | 61 | 314 | 0.0 | 2.0 | 0.00 | 0.00 | 0.00 | 58 | 1026.1 |
| 20260502061502 | 59 | 0 | 0.0 | 0.0 | 0.00 | 0.00 | 0.00 | 59 | 1026.2 |
| 20260502060005 | 58 | 0 | 0.0 | 0.0 | 0.00 | 0.00 | 0.00 | 60 | 1026.3 |
| 20260502054502 | 57 | 0 | 0.0 | 0.0 | 0.00 | 0.00 | 0.00 | 62 | 1026.3 |